CW1490 Weather Reports


Display with metric or nautical units.
time (UTC)temp
F
wind
direction
speed
MPH
gust
MPH
rain 1hr
in
rain 24hr
in
rain mn
in
humidity
%
barometer
mb
20171120040933 36 286 2.0 16.0 0.00 0.39 0.37 64 1003.4
20171120035432 36 349 4.0 15.0 0.00 0.39 0.37 65 1003.2
20171120033930 35 318 1.0 9.0 0.00 0.39 0.37 65 1002.9
20171120032432 36 84 0.0 9.0 0.00 0.39 0.37 64 1002.9
20171120030939 36 258 2.0 8.0 0.00 0.39 0.37 65 1002.7
20171120025444 36 234 2.0 11.0 0.00 0.39 0.37 65 1002.9
20171120023927 36 337 4.0 16.0 0.00 0.39 0.37 65 1002.8
20171120022441 37 330 4.0 15.0 0.00 0.39 0.37 64 1002.6
20171120020921 37 319 6.0 16.0 0.00 0.39 0.37 65 1002.3
20171120015423 37 286 3.0 13.0 0.00 0.42 0.37 64 1002.1
20171120013920 37 299 4.0 12.0 0.00 0.42 0.37 64 1002.1
20171120012417 37 315 4.0 10.0 0.00 0.42 0.37 64 1001.9
20171120010916 37 359 3.0 9.0 0.00 0.42 0.37 65 1001.7
20171120005414 37 345 7.0 14.0 0.00 0.47 0.37 64 1001.2
20171120003920 37 343 5.0 15.0 0.00 0.47 0.37 63 1000.9
20171120002412 37 319 6.0 16.0 0.00 0.47 0.37 63 1000.8
20171120000912 37 330 5.0 15.0 0.00 0.47 0.37 63 1000.9
20171119235435 37 27 6.0 21.0 0.00 0.48 0.37 62 1000.5
20171119233905 37 345 10.0 20.0 0.00 0.48 0.37 63 1000.1
20171119232504 37 312 5.0 14.0 0.00 0.48 0.37 66 1000.1
20171119230900 38 292 4.0 12.0 0.00 0.48 0.37 68 1000.2
20171119225409 38 322 5.0 22.0 0.00 0.48 0.37 67 999.6
20171119223903 38 264 2.0 15.0 0.00 0.48 0.37 66 999.3
20171119222353 38 303 2.0 12.0 0.00 0.48 0.37 67 999.0
20171119220905 38 89 1.0 5.0 0.00 0.48 0.37 72 998.7
20171119215358 38 52 1.0 9.0 0.00 0.48 0.37 67 998.4
20171119213858 38 17 2.0 9.0 0.00 0.48 0.37 67 998.2
20171119212419 38 297 4.0 13.0 0.00 0.48 0.37 67 998.1
20171119210845 39 22 5.0 11.0 0.00 0.48 0.37 67 997.7
20171119205340 39 283 2.0 13.0 0.00 0.48 0.37 67 997.5
20171119203847 40 253 3.0 9.0 0.00 0.48 0.37 66 996.9
20171119202357 41 274 7.0 17.0 0.00 0.48 0.37 65 996.6
20171119200839 41 289 5.0 12.0 0.00 0.48 0.37 66 996.0
20171119195402 41 278 8.0 19.0 0.00 0.48 0.37 67 995.3
20171119193840 42 313 4.0 19.0 0.00 0.48 0.37 65 994.9
20171119192333 42 324 7.0 24.0 0.00 0.48 0.37 68 994.5
20171119190829 42 297 5.0 12.0 0.00 0.48 0.37 70 994.0
20171119185341 42 4 4.0 16.0 0.00 0.48 0.37 71 993.5
20171119183840 41 293 3.0 25.0 0.00 0.48 0.37 74 993.3
20171119182342 42 278 5.0 12.0 0.00 0.48 0.37 74 993.1
20171119180832 42 255 3.0 21.0 0.00 0.48 0.37 72 992.9
20171119175327 43 214 5.0 10.0 0.00 0.48 0.37 74 992.9
20171119173829 44 237 1.0 13.0 0.00 0.48 0.37 72 992.0
20171119172325 45 310 5.0 16.0 0.00 0.48 0.37 70 991.7
20171119170832 43 40 4.0 17.0 0.00 0.48 0.37 73 991.1
20171119165325 44 313 2.0 17.0 0.00 0.48 0.37 73 990.5
20171119163828 44 305 6.0 12.0 0.00 0.48 0.37 75 989.6
20171119162319 43 303 3.0 11.0 0.00 0.48 0.37 81 989.9
20171119160918 43 218 10.0 23.0 0.00 0.48 0.37 79 989.3
20171119155337 43 270 13.0 25.0 0.00 0.48 0.37 79 989.1
20171119153824 44 223 13.0 22.0 0.00 0.48 0.37 80 988.8
20171119152323 44 253 9.0 15.0 0.00 0.48 0.37 83 988.2
20171119150818 44 254 10.0 21.0 0.02 0.48 0.37 85 988.1
20171119145315 44 15 8.0 26.0 0.02 0.48 0.37 88 987.8
20171119143828 46 239 8.0 21.0 0.03 0.48 0.37 94 987.0
20171119142313 48 233 11.0 23.0 0.06 0.48 0.37 96 986.5
20171119140819 53 165 5.0 9.0 0.06 0.46 0.35 98 984.3
20171119135313 52 210 5.0 12.0 0.08 0.46 0.35 97 984.2
20171119133800 51 189 4.0 10.0 0.07 0.45 0.34 97 984.6
20171119132301 51 193 6.0 10.0 0.05 0.42 0.31 97 985.1
20171119130802 51 201 4.0 7.0 0.03 0.40 0.28 97 985.1
20171119125300 50 189 4.0 8.0 0.01 0.38 0.27 97 985.4
20171119123751 50 215 4.0 8.0 0.02 0.38 0.27 97 985.6
20171119122249 50 172 4.0 8.0 0.02 0.37 0.26 97 985.4
20171119120745 49 214 3.0 7.0 0.02 0.37 0.26 97 985.9
20171119115246 49 206 3.0 8.0 0.02 0.37 0.26 97 986.4
20171119113742 48 240 2.0 6.0 0.01 0.36 0.25 97 986.5
20171119112240 48 217 4.0 7.0 0.00 0.35 0.24 97 986.8
20171119110757 48 223 6.0 11.0 0.01 0.35 0.24 97 986.9
20171119105238 48 199 6.0 14.0 0.01 0.35 0.24 97 986.7
20171119103736 47 200 8.0 12.0 0.01 0.35 0.24 97 987.2
20171119102235 46 263 5.0 12.0 0.02 0.35 0.24 97 987.1
20171119100737 46 204 9.0 12.0 0.02 0.34 0.23 97 986.7
20171119095430 45 228 5.0 11.0 0.03 0.34 0.23 97 987.7
20171119093725 44 199 6.0 11.0 0.04 0.34 0.23 97 988.4
20171119092227 43 216 6.0 8.0 0.03 0.33 0.22 97 989.2
20171119090753 41 210 4.0 10.0 0.02 0.32 0.21 97 989.2
20171119085222 37 189 3.0 4.0 0.03 0.31 0.20 97 988.8
20171119083709 37 341 0.0 0.0 0.06 0.30 0.19 97 990.3
20171119082213 37 341 0.0 0.0 0.09 0.30 0.19 97 990.3
20171119080708 37 212 0.0 0.0 0.11 0.30 0.19 97 990.3
20171119075310 37 265 0.0 0.0 0.10 0.28 0.17 96 991.4
20171119073701 37 265 0.0 0.0 0.07 0.24 0.13 96 991.5
20171119072158 37 260 0.0 0.0 0.05 0.21 0.10 97 992.0
20171119070703 36 260 0.0 0.0 0.04 0.19 0.08 96 992.4
20171119065155 36 243 0.0 0.0 0.04 0.18 0.07 96 992.8
20171119063720 36 204 0.0 0.0 0.03 0.17 0.06 96 993.3
20171119062208 35 204 0.0 0.0 0.03 0.16 0.05 96 993.7
20171119060653 35 204 0.0 0.0 0.03 0.15 0.04 96 994.2
20171119055151 35 204 0.0 0.0 0.04 0.14 0.03 96 994.5
20171119053654 35 204 0.0 0.0 0.04 0.14 0.03 96 994.7
20171119052219 35 204 0.0 0.0 0.03 0.13 0.02 96 995.2
20171119050652 35 204 0.0 0.0 0.03 0.12 0.01 96 995.6
20171119045204 35 204 0.0 0.0 0.01 0.10 0.10 96 996.0
20171119043638 35 204 0.0 0.0 0.01 0.10 0.10 96 996.3
20171119042142 35 204 0.0 0.0 0.01 0.10 0.10 96 996.8